Hourly Data Report for September 14, 2017

All times are specified in Local Standard Time (LST). Add 1 hour to adjust for Daylight Saving Time where and when it is observed.

GRISE FIORD CLIMATE
NUNAVUT

76°25'22.040" N
82°54'08.020" W
44.50 m
2402351
71971
NGC

Download Data

Hourly Data (September 2017)
Hourly Data Report for September 14, 2017
Temp Definition
°C
Dew Point Temp Definition
°C
Rel Hum Definition
%
Wind Dir Definition
10's deg

Wind Spd Definition
km/h
Visibility Definition
km
Stn Press Definition
kPa
Hmdx Definition


Wind Chill Definition


Weather Definition


TIME
00:00 -3.9 -5.0 92 4 3   101.50   -5 LegendNANA
01:00 -3.9 -4.6 95 14 3   101.50   -5 LegendNANA
02:00 -3.9 -4.4 96 3 2   101.51   -5 LegendNANA
03:00 -3.9 -4.7 94 0 1   101.51   -4 LegendNANA
04:00 -4.0 -4.8 94 4 2   101.48   -5 LegendNANA
05:00 -4.1 -5.1 93 3 5   101.49   -6 LegendNANA
06:00 -3.8 -5.0 92 2 3   101.49   -5 LegendNANA
07:00 -3.7 -4.8 92 3 2   101.48   -5 LegendNANA
08:00 -3.6 -4.9 91 2 6   101.44   -6 LegendNANA
09:00 -3.1 -4.9 88 31 4   101.40   -5 LegendNANA
10:00 -2.9 -5.1 84 33 7   101.36   -6 LegendNANA
11:00 -2.5 -5.4 81 9 1   101.32   -3 LegendNANA
12:00 -2.1 -6.1 74 15 2   101.28   -3 LegendNANA
13:00 LegendMM LegendMM LegendMM LegendMM LegendMM   LegendMM     LegendNANA
14:00 -1.9 -5.8 75 26 2   101.20   -3 LegendNANA
15:00 -1.8 -5.8 74 24 4   101.18   -3 LegendNANA
16:00 -2.1 -7.7 66 0 1   101.14   -2 LegendNANA
17:00 -1.7 -6.7 69 25 3   101.09   -3 LegendNANA
18:00 -2.2 -5.8 77 27 7   101.04   -5 LegendNANA
19:00 -3.2 -6.6 78 5 8   100.99   -6 LegendNANA
20:00 -4.3 -6.8 82 11 1   100.93   -5 LegendNANA
21:00 -4.0 -7.6 76 4 5   100.87   -6 LegendNANA
22:00 -5.0 -6.5 89 8 1   100.78   -5 LegendNANA
23:00 -5.0 -7.8 81 7 4   100.73   -7 LegendNANA

Notes on Data Quality.

Legend

  • E = Estimated
  • M = Missing
  • NA = Not Available
  • ‡ = Partner data that is not subject to review by the National Climate Archives
Date modified: